Weather History for Hamilton, OH

Change the Weather History Date:

Sunday, October 30, 2011

  Actual Average (KCVG) Record (KCVG)
Temperature  
Mean Temperature 43 °F 51 °F  
Max Temperature 60 °F 61 °F 83 °F (1927)
Min Temperature 27 °F 41 °F 22 °F (1980)
Degree Days  
Heating Degree Days 22 14  
Month to date heating degree days 290  
Since 1 July heating degree days 348  
Cooling Degree Days 0 0  
Month to date cooling degree days 16  
Year to date cooling degree days 1121  
Moisture  
Dew Point 27 °F    
Average Humidity 59    
Maximum Humidity 85    
Minimum Humidity 27    
Precipitation  
Precipitation 0.00 in 0.11 in 0.88 in (1976)
Month to date precipitation 3.19  
Year to date precipitation 35.61  
Snow  
Snow 0.00 in 0.00 in 5.90 in (1993)
Month to date snowfall 0.4  
Since 1 July snowfall 0.4  
Since 1 September snowfall 0.4  
Snow Depth -    
Sea Level Pressure  
Sea Level Pressure 30.22 in    
Wind  
Wind Speed 2 mph (SE)    
Max Wind Speed 7 mph    
Max Gust Speed -    
Visibility 9 miles    
Events      
T = Trace of Precipitation, MM = Missing Value Source: NWS Daily Summary

Daily Weather History Graph

Daily Weather History Graph

Search for Another Location

Airport:

Trip Planner

Search our weather history database for the weather conditions in past years. The results will help you decide how hot, cold, wet, or windy it might be!

Date:

Astronomy

Oct. 30, 2011 Rise Set
Actual Time 8:03 AM EDT 6:39 PM EDT
Civil Twilight 7:35 AM EDT 7:07 PM EDT
Nautical Twilight 7:04 AM EDT 7:38 PM EDT
Astronomical Twilight 6:33 AM EDT 8:09 PM EDT
Moon 12:21 PM EDT (10/30) 10:08 PM EDT (10/30)
Length of Visible Light 11h 31m
Length of Day
10h 35m
Waxing Crescent, 20% of the Moon is Illuminated
Oct 30
Waxing Crescent
Nov 2
First Quarter
Nov 10
Full
Nov 18
Last Quarter
Nov 25
New

Hourly Weather History & Observations

Time (EDT) Temp. Windchill Dew Point Humidity Pressure Visibility Wind Dir Wind Speed Gust Speed Precip Events Conditions
12:53 AM 30.9 °F - 26.1 °F 82% 30.18 in 9.0 mi Calm Calm - N/A   Clear
1:53 AM 28.9 °F - 25.0 °F 85% 30.18 in 8.0 mi Calm Calm - N/A   Clear
2:53 AM 28.9 °F - 24.1 °F 82% 30.19 in 10.0 mi Calm Calm - N/A   Clear
3:53 AM 28.0 °F - 24.1 °F 85% 30.21 in 8.0 mi Calm Calm - N/A   Clear
4:53 AM 28.0 °F - 23.0 °F 81% 30.22 in 7.0 mi Calm Calm - N/A   Clear
5:53 AM 27.0 °F - 21.9 °F 81% 30.24 in 7.0 mi Calm Calm - N/A   Partly Cloudy
6:53 AM 27.0 °F - 21.9 °F 81% 30.25 in 7.0 mi Calm Calm - N/A   Clear
8:53 AM 28.9 °F - 24.1 °F 82% 30.30 in 7.0 mi Calm Calm - N/A   Clear
9:53 AM 34.0 °F 31.0 °F 28.9 °F 82% 30.30 in 5.0 mi East 3.5 mph - N/A   Haze
10:53 AM 41.0 °F - 34.0 °F 76% 30.30 in 7.0 mi Calm Calm - N/A   Clear
11:53 AM 52.0 °F - 32.0 °F 47% 30.29 in 10.0 mi Calm Calm - N/A   Clear
12:53 PM 55.9 °F - 30.0 °F 37% 30.27 in 10.0 mi South 6.9 mph - N/A   Clear
1:53 PM 57.0 °F - 28.0 °F 33% 30.24 in 10.0 mi Variable 6.9 mph - N/A   Clear
2:53 PM 59.0 °F - 25.0 °F 27% 30.21 in 10.0 mi Variable 6.9 mph - N/A   Mostly Cloudy
3:53 PM 59.0 °F - 25.0 °F 27% 30.19 in 10.0 mi Variable 6.9 mph - N/A   Clear
4:53 PM 57.9 °F - 25.0 °F 28% 30.17 in 10.0 mi SSE 6.9 mph - N/A   Clear
5:53 PM 55.9 °F - 25.0 °F 30% 30.17 in 10.0 mi South 5.8 mph - N/A   Clear
7:53 PM 45.0 °F 43.5 °F 30.9 °F 58% 30.18 in 10.0 mi East 3.5 mph - N/A   Clear
8:53 PM 48.9 °F - 28.9 °F 46% 30.17 in 10.0 mi SE 3.5 mph - N/A   Clear
10:53 PM 50.0 °F - 28.0 °F 43% 30.17 in 10.0 mi Calm Calm - N/A   Scattered Clouds
11:53 PM 48.0 °F - 28.9 °F 48% 30.15 in 10.0 mi ESE 4.6 mph - N/A   Overcast